Casper, WY

4:27 PM MDT on March 26, 2017 (GMT -0600)
Natrona County International

Weather History for KCPR - December, 2012

Change the Weather History Date:

Saturday, December 1, 2012

  Actual Average Record
Temperature  
Mean Temperature 49 °F 26 °F  
Max Temperature 56 °F 37 °F 63 °F (1995)
Min Temperature 42 °F 16 °F -23 °F (1985)
Degree Days  
Heating Degree Days 16 39  
Month to date heating degree days 16 39  
Since 1 July heating degree days 1550 1893  
Cooling Degree Days 0 0  
Month to date cooling degree days 0 0  
Year to date cooling degree days 697 422  
Moisture  
Dew Point 27 °F    
Average Humidity 45    
Maximum Humidity 58    
Minimum Humidity 32    
Precipitation  
Precipitation 0.00 in 0.02 in 1.24 in (1982)
Month to date precipitation 0.00 0.02  
Year to date precipitation 7.49 12.05  
Snow  
Snow 0.00 in 0.30 in - ()
Month to date snowfall 0.0 0.3  
Since 1 July snowfall 12.7 19.8  
Snow Depth 0.00 in    
Sea Level Pressure  
Sea Level Pressure 29.83 in    
Wind  
Wind Speed 22 mph (SW)    
Max Wind Speed 33 mph    
Max Gust Speed 40 mph    
Visibility 10 miles    
Events      
T = Trace of Precipitation, MM = Missing Value Source: NWS Daily Summary

Daily Weather History Graph

Daily Weather History Graph

Search for Another Location

Airport or City:

Trip Planner

Search our weather history database for the weather conditions in past years. The results will help you decide how hot, cold, wet, or windy it might be!

Date:

Astronomy

Dec. 01, 2012 Rise Set
Actual Time 7:17 AM MST 4:32 PM MST
Civil Twilight 6:45 AM MST 5:04 PM MST
Nautical Twilight 6:10 AM MST 5:39 PM MST
Astronomical Twilight 5:36 AM MST 6:13 PM MST
Moon 7:26 PM MST (12/1) 9:31 AM MST (12/1)
Length of Visible Light 10h 18m
Length of Day
9h 14m
Waning Gibbous, 91% of the Moon is Illuminated
Dec 1
Waning Gibbous
Dec 6
Last Quarter
Dec 13
New
Dec 19
First Quarter
Dec 28
Full

Hourly Weather History & Observations

Time (MST) Temp. Windchill Dew Point Humidity Pressure Visibility Wind Dir Wind Speed Gust Speed Precip Events Conditions
12:53 AM 45.0 °F 36.9 °F 28.0 °F 52% 29.75 in 10.0 mi SW 20.7 mph 25.3 mph N/A   Clear
1:53 AM 45.0 °F 36.4 °F 28.9 °F 53% 29.74 in 10.0 mi SW 23.0 mph 34.5 mph N/A   Clear
2:53 AM 44.1 °F 35.7 °F 28.9 °F 55% 29.76 in 10.0 mi SW 20.7 mph 28.8 mph N/A   Clear
3:53 AM 45.0 °F 35.8 °F 30.0 °F 56% 29.75 in 10.0 mi SW 26.5 mph 34.5 mph N/A   Clear
5:53 AM 44.1 °F 36.2 °F 30.9 °F 60% 29.81 in 10.0 mi SW 18.4 mph 29.9 mph N/A   Clear
6:53 AM 44.1 °F 36.5 °F 30.0 °F 58% 29.84 in 10.0 mi SSW 17.3 mph - N/A   Clear
7:53 AM 44.6 °F 36.4 °F 30.2 °F 57% 29.89 in 10.0 mi SW 20.7 mph 31.1 mph N/A   Clear
8:53 AM 46.0 °F 38.5 °F 30.0 °F 54% 29.84 in 10.0 mi SW 19.6 mph 26.5 mph N/A   Clear
9:53 AM 48.0 °F - 30.0 °F 50% 29.85 in 10.0 mi SW 27.6 mph 34.5 mph N/A   Clear
10:53 AM 50.0 °F - 25.0 °F 38% 29.85 in 10.0 mi WSW 29.9 mph 40.3 mph N/A   Clear
11:53 AM 51.1 °F - 24.1 °F 35% 29.84 in 10.0 mi WSW 29.9 mph 38.0 mph N/A   Clear
12:53 PM 53.1 °F - 24.1 °F 32% 29.84 in 10.0 mi WSW 23.0 mph 32.2 mph N/A   Clear
1:53 PM 54.0 °F - 26.1 °F 34% 29.82 in 10.0 mi West 24.2 mph 33.4 mph N/A   Clear
2:53 PM 54.0 °F - 26.1 °F 34% 29.83 in 10.0 mi WSW 27.6 mph 34.5 mph N/A   Clear
3:53 PM 53.1 °F - 26.1 °F 35% 29.84 in 10.0 mi WSW 26.5 mph 35.7 mph N/A   Clear
4:53 PM 50.0 °F - 25.0 °F 38% 29.86 in 10.0 mi SW 20.7 mph - N/A   Clear
5:53 PM 46.0 °F 41.0 °F 25.0 °F 44% 29.89 in 10.0 mi SW 10.4 mph - N/A   Clear
6:53 PM 45.0 °F 39.7 °F 26.1 °F 48% 29.89 in 10.0 mi SW 10.4 mph - N/A   Clear
7:53 PM 46.9 °F - 25.0 °F 42% 29.86 in 10.0 mi SW 16.1 mph - N/A   Clear
8:53 PM 48.0 °F - 24.1 °F 39% 29.84 in 10.0 mi SW 20.7 mph 27.6 mph N/A   Clear
9:53 PM 48.0 °F - 25.0 °F 41% 29.84 in 10.0 mi SW 25.3 mph 34.5 mph N/A   Clear
10:53 PM 45.0 °F 36.2 °F 25.0 °F 46% 29.83 in 10.0 mi SW 24.2 mph - N/A   Clear
11:53 PM 44.1 °F 36.8 °F 25.0 °F 47% 29.83 in 10.0 mi SW 16.1 mph - N/A   Clear